Latest Weather Observations for Mount Read

IDT60801

Issued at 12:01 am EDT Friday 19 December 2014 (issued every 30 minutes, with the page automatically refreshed every 10 minutes)

About weather observations | Map of weather stations | Latest weather observations for TAS | Other Formats
Station Details ID: 097085 Name: MOUNT READ Lat: -41.84 Lon: 145.54 Height: 1119.5 m
Data from the previous 72 hours. | See also: Recent months at Mount Read
Date/Time
EDT
Temp
°C
App
Temp
°C
Dew
Point
Rel
Hum
%
Delta-T
°C
Wind Press
QNH
hPa
Press
MSL
hPa
Rain
since 9 am
mm
Dir
 
Spd
km/h
Gust
km/h
Spd
kts
Gust
kts
19/12:00am 2.6 -6.0 2.5 99 0.0 WSW 37 46 20 25 1007.4 1006.5 17.6
 
Date/Time
EDT
Temp
°C
App
Temp
°C
Dew
Point
Rel
Hum
%
Delta-T
°C
Wind Press
QNH
hPa
Press
MSL
hPa
Rain
since 9 am
mm
Dir
 
Spd
km/h
Gust
km/h
Spd
kts
Gust
kts
18/11:40pm 2.9 -4.3 2.8 99 0.0 WSW 30 48 16 26 1007.2 1006.3 17.6
18/11:30pm 2.8 -4.8 2.7 99 0.0 WSW 32 43 17 23 1007.3 1006.4 17.6
18/11:00pm 3.1 -4.7 3.0 99 0.0 WSW 33 46 18 25 1007.2 1006.3 17.6
18/10:30pm 3.4 -4.1 3.3 99 0.0 W 32 44 17 24 1007.3 1006.4 17.6
18/10:00pm 3.2 -3.6 3.1 99 0.0 WSW 28 37 15 20 1007.2 1006.3 17.0
18/09:30pm 3.3 -3.1 3.2 99 0.0 WSW 26 35 14 19 1007.2 1006.3 16.6
18/09:00pm 2.8 -5.4 2.7 99 0.0 SW 35 46 19 25 1006.6 1005.7 16.6
18/08:30pm 3.2 -5.3 3.1 99 0.0 SW 37 44 20 24 1006.2 1005.3 16.6
18/08:00pm 3.5 -4.6 3.4 99 0.0 WSW 35 48 19 26 1005.9 1004.9 16.6
18/07:31pm 3.7 -3.4 3.6 99 0.0 WSW 30 50 16 27 1005.5 1004.6 16.4
18/07:30pm 3.8 -3.7 3.7 99 0.0 WSW 32 50 17 27 1005.4 1004.5 16.4
18/07:00pm 4.2 -3.2 4.1 99 0.0 W 32 43 17 23 1004.8 1003.9 16.4
18/06:30pm 4.4 -3.1 4.3 99 0.0 W 33 44 18 24 1004.4 1003.4 16.4
18/06:00pm 5.2 -2.2 5.1 99 0.0 W 33 50 18 27 1004.0 1003.0 16.4
18/05:30pm 5.0 -1.5 4.9 99 0.0 WNW 28 46 15 25 1003.7 1002.7 16.4
18/05:01pm 4.4 -2.2 4.3 99 0.0 WNW 28 46 15 25 1003.4 1002.4 16.4
18/05:00pm 4.5 -2.4 4.4 99 0.0 WNW 30 46 16 25 1003.5 1002.5 16.4
18/04:30pm 4.5 -4.5 4.4 99 0.0 W 41 54 22 29 1002.8 1001.8 16.0
18/04:16pm 4.9 -1.6 4.8 99 0.0 WNW 28 46 15 25 1003.0 1001.9 13.8
18/04:00pm 5.1 -2.1 5.0 99 0.0 WNW 32 44 17 24 1002.7 1001.7 13.4
18/03:30pm 4.7 -1.4 4.6 99 0.0 WNW 26 43 14 23 1002.6 1001.6 13.4
18/03:00pm 4.3 -1.9 4.2 99 0.0 NNW 26 43 14 23 1002.3 1001.3 11.2
18/02:30pm 4.0 -1.9 3.9 99 0.0 NNW 24 39 13 21 1002.3 1001.3 10.4
18/02:03pm 4.0 -2.7 3.9 99 0.0 NW 28 50 15 27 1002.5 1001.5 9.8
18/02:00pm 4.0 -1.9 3.9 99 0.0 NW 24 44 13 24 1002.5 1001.5 9.8
18/01:52pm 3.9 -4.5 3.8 99 0.0 NW 37 59 20 32 1002.6 1001.6 9.6
18/01:30pm 3.8 -8.2 3.7 99 0.0 WNW 56 78 30 42 1002.2 1001.1 9.0
18/01:22pm 4.2 -4.9 4.1 99 0.0 NNW 41 78 22 42 1001.8 1000.8 8.2
18/01:10pm 6.0 -1.2 5.9 99 0.0 NNW 33 56 18 30 1002.1 1001.0 6.4
18/01:00pm 6.1 -0.9 6.0 99 0.0 N 32 44 17 24 1001.9 1000.9 5.0
18/12:30pm 6.0 -2.3 5.9 99 0.0 N 39 59 21 32 1001.5 1000.5 2.2
18/12:02pm 6.0 -2.3 5.9 99 0.0 N 39 57 21 31 1001.7 1000.7 1.4
18/12:00pm 6.0 -2.7 5.9 99 0.0 N 41 57 22 31 1001.5 1000.5 1.4
18/11:54am 5.9 -2.5 5.8 99 0.0 N 39 57 21 31 1001.5 1000.5 0.6
18/11:30am 5.8 -2.6 5.7 99 0.0 N 39 50 21 27 1001.6 1000.6 0.0
18/11:08am 5.8 -3.5 5.7 99 0.0 N 44 67 24 36 1001.3 1000.2 0.0
18/11:00am 5.8 -3.0 5.7 99 0.0 N 41 57 22 31 1001.4 1000.3 0.0
18/10:30am 5.4 -3.1 5.3 99 0.0 N 39 52 21 28 1001.8 1000.8 0.0
18/10:00am 5.2 -3.7 5.1 99 0.0 N 41 54 22 29 1002.1 1001.0 0.0
18/09:30am 5.2 -2.9 5.1 99 0.0 N 37 59 20 32 1002.3 1001.3 0.0
18/09:24am 5.0 -3.2 4.9 99 0.0 N 37 59 20 32 1002.2 1001.1 0.0
18/09:00am 5.1 -2.7 5.0 99 0.0 N 35 50 19 27 1002.3 1001.3 3.6
18/08:30am 4.8 -3.4 4.7 99 0.0 N 37 46 20 25 1002.4 1001.4 3.6
18/08:00am 4.6 -3.3 4.5 99 0.0 N 35 46 19 25 1002.6 1001.6 3.6
18/07:48am 4.5 -3.0 4.4 99 0.0 N 33 54 18 29 1002.5 1001.5 3.6
18/07:30am 4.5 -3.4 4.4 99 0.0 N 35 50 19 27 1002.5 1001.5 3.6
18/07:15am 4.4 -3.1 4.3 99 0.0 N 33 54 18 29 1002.4 1001.4 3.6
18/07:00am 4.2 -3.7 4.1 99 0.0 N 35 50 19 27 1002.5 1001.5 3.6
18/06:46am 4.0 -3.6 3.9 99 0.0 N 33 52 18 28 1002.4 1001.4 3.6
18/06:30am 3.9 -4.1 3.8 99 0.0 N 35 48 19 26 1002.3 1001.3 3.6
18/06:13am 3.8 -4.6 3.7 99 0.0 N 37 57 20 31 1002.3 1001.3 3.6
18/06:00am 3.8 -4.6 3.7 99 0.0 N 37 54 20 29 1002.4 1001.4 3.6
18/05:30am 3.7 -4.0 3.6 99 0.0 N 33 48 18 26 1002.5 1001.5 3.6
18/05:00am 3.3 -4.2 3.2 99 0.0 N 32 46 17 25 1002.7 1001.7 3.4
18/04:30am 3.1 -3.7 3.0 99 0.0 N 28 37 15 20 1002.8 1001.8 3.4
18/04:00am 3.0 -3.8 2.9 99 0.0 N 28 37 15 20 1003.0 1001.9 3.4
18/03:30am 3.0 -4.2 2.9 99 0.0 N 30 41 16 22 1003.3 1002.3 3.4
18/03:00am 2.9 -3.2 2.8 99 0.0 N 24 32 13 17 1003.6 1002.6 3.4
18/02:30am 2.8 -3.3 2.7 99 0.0 N 24 32 13 17 1003.8 1002.9 3.4
18/02:00am 2.8 -2.6 2.7 99 0.0 N 20 28 11 15 1004.1 1003.1 3.4
18/01:30am 2.8 -2.9 2.7 99 0.0 N 22 28 12 15 1004.2 1003.2 3.4
18/01:00am 2.9 -2.4 2.8 99 0.0 N 20 30 11 16 1004.4 1003.4 3.4
18/12:30am 2.9 -3.2 2.8 99 0.0 N 24 30 13 16 1004.7 1003.8 3.4
18/12:00am 3.1 -3.3 3.0 99 0.0 N 26 30 14 16 1005.2 1004.2 3.4
 
Date/Time
EDT
Temp
°C
App
Temp
°C
Dew
Point
Rel
Hum
%
Delta-T
°C
Wind Press
QNH
hPa
Press
MSL
hPa
Rain
since 9 am
mm
Dir
 
Spd
km/h
Gust
km/h
Spd
kts
Gust
kts
17/11:30pm 3.2 -3.2 3.1 99 0.0 N 26 30 14 16 1005.5 1004.6 3.4
17/11:00pm 3.0 -2.7 2.9 99 0.0 NNW 22 28 12 15 1005.6 1004.7 3.4
17/10:30pm 3.1 -2.6 3.0 99 0.0 NNW 22 28 12 15 1006.1 1005.1 3.4
17/10:00pm 3.2 -1.9 3.1 99 0.0 NNW 19 22 10 12 1006.2 1005.3 3.4
17/09:30pm 3.6 -1.5 3.3 98 0.1 NNW 19 26 10 14 1006.3 1005.4 3.4
17/09:00pm 3.8 -0.9 2.9 94 0.4 NW 17 28 9 15 1006.3 1005.4 3.4
17/08:30pm 4.0 0.5 3.4 96 0.3 NNW 11 22 6 12 1006.3 1005.4 3.4
17/08:00pm 4.2 0.3 3.3 94 0.4 NW 13 19 7 10 1006.3 1005.4 3.4
17/07:30pm 4.3 0.0 3.4 94 0.4 WNW 15 20 8 11 1006.1 1005.1 3.4
17/07:00pm 4.9 0.2 3.1 88 0.8 WNW 17 28 9 15 1006.0 1005.0 3.4
17/06:30pm 6.0 0.8 2.6 79 1.5 WNW 19 28 10 15 1005.7 1004.8 3.4
17/06:00pm 5.9 0.5 2.7 80 1.4 WNW 20 28 11 15 1005.7 1004.8 3.4
17/05:30pm 6.4 1.1 3.0 79 1.5 WNW 20 33 11 18 1005.7 1004.8 3.4
17/05:00pm 5.3 -1.4 3.6 89 0.8 WNW 28 39 15 21 1005.6 1004.7 3.4
17/04:30pm 5.1 -0.2 5.0 99 0.0 WNW 22 35 12 19 1005.6 1004.7 3.4
17/04:00pm 4.5 -2.1 4.4 99 0.0 WNW 28 37 15 20 1005.7 1004.8 3.4
17/03:30pm 6.9 1.6 6.8 99 0.0 WNW 24 35 13 19 1005.7 1004.8 3.4
17/03:00pm 5.4 0.7 5.3 99 0.0 NW 19 35 10 19 1005.6 1004.7 3.4
17/02:30pm 5.5 0.7 5.4 99 0.0 W 20 32 11 17 1005.5 1004.6 3.4
17/02:00pm 4.5 -0.9 4.4 99 0.0 W 22 33 12 18 1005.4 1004.5 3.4
17/01:30pm 3.1 -2.0 3.0 99 0.0 W 19 22 10 12 1005.5 1004.6 2.6
17/01:00pm 4.2 -1.7 4.1 99 0.0 W 24 33 13 18 1005.4 1004.5 2.2
17/12:30pm 4.0 -1.1 3.9 99 0.0 W 20 33 11 18 1005.2 1004.2 1.8
17/12:00pm 4.2 -2.0 4.1 99 0.0 W 26 39 14 21 1004.8 1003.9 1.4
17/11:30am 3.9 -2.0 3.8 99 0.0 W 24 32 13 17 1004.5 1003.5 0.6
17/11:00am 3.6 -1.6 3.5 99 0.0 W 20 30 11 16 1004.1 1003.1 0.2
17/10:30am 4.2 -2.0 4.1 99 0.0 WSW 26 41 14 22 1003.7 1002.7 0.0
17/10:00am 3.4 -3.0 3.3 99 0.0 WSW 26 33 14 18 1003.5 1002.5 0.0
17/09:30am 3.3 -3.9 3.2 99 0.0 WSW 30 39 16 21 1003.3 1002.3 0.0
17/09:00am 2.4 -5.3 2.3 99 0.0 WSW 32 46 17 25 1003.0 1001.9 33.2
17/08:30am 2.4 -4.2 2.3 99 0.0 SW 26 39 14 21 1002.3 1001.3 33.2
17/08:04am 2.4 -4.5 2.3 99 0.0 SW 28 48 15 26 1001.9 1000.9 33.2
17/08:00am 2.4 -4.9 2.3 99 0.0 SW 30 44 16 24 1001.8 1000.8 33.2
17/07:30am 1.8 -6.6 1.7 99 0.0 SW 35 48 19 26 1001.2 1000.1 33.2
17/07:00am 1.9 -5.5 1.8 99 0.0 SW 30 43 16 23 1000.7 999.7 32.8
17/06:30am 1.9 -6.8 1.8 99 0.0 SW 37 48 20 26 1000.4 999.3 32.8
17/06:24am 1.9 -6.5 1.8 99 0.0 SW 35 56 19 30 1000.3 999.2 32.8
17/06:00am 1.9 -7.6 1.8 99 0.0 SW 41 56 22 30 999.8 998.7 32.8
17/05:30am 2.0 -6.7 1.9 99 0.0 WSW 37 54 20 29 999.0 997.9 32.8
17/05:06am 1.9 -7.2 1.8 99 0.0 SW 39 61 21 33 998.7 997.6 32.8
17/05:00am 1.9 -8.0 1.8 99 0.0 SW 43 54 23 29 998.8 997.7 32.6
17/04:42am 2.1 -7.4 2.0 99 0.0 SW 41 61 22 33 998.4 997.3 32.6
17/04:30am 1.9 -7.2 1.8 99 0.0 SW 39 50 21 27 998.4 997.3 32.6
17/04:00am 2.0 -7.9 1.9 99 0.0 SW 43 59 23 32 998.2 997.0 32.6
17/03:30am 1.8 -8.7 1.7 99 0.0 SW 46 67 25 36 997.9 996.8 32.6
17/03:00am 1.8 -8.1 1.7 99 0.0 SW 43 67 23 36 997.4 996.2 31.4
17/02:30am 2.1 -8.3 2.0 99 0.0 SW 46 67 25 36 997.0 995.9 31.2
17/02:00am 2.3 -8.1 2.2 99 0.0 SW 46 65 25 35 996.9 995.8 30.2
17/01:30am 2.2 -8.2 2.1 99 0.0 SW 46 65 25 35 996.6 995.4 29.6
17/01:00am 2.5 -9.4 2.4 99 0.0 SW 54 74 29 40 996.1 995.0 29.2
17/12:30am 3.2 -8.5 3.1 99 0.0 SW 54 72 29 39 995.7 994.5 28.2
17/12:00am 3.0 -10.1 2.9 99 0.0 SW 61 83 33 45 994.8 993.6 27.8
 
Date/Time
EDT
Temp
°C
App
Temp
°C
Dew
Point
Rel
Hum
%
Delta-T
°C
Wind Press
QNH
hPa
Press
MSL
hPa
Rain
since 9 am
mm
Dir
 
Spd
km/h
Gust
km/h
Spd
kts
Gust
kts
16/11:30pm 2.8 -10.7 2.7 99 0.0 SW 63 93 34 50 994.8 993.6 26.8
16/11:00pm 3.2 -9.9 3.1 99 0.0 SW 61 83 33 45 994.4 993.1 25.8
16/10:30pm 3.1 -10.0 3.0 99 0.0 SW 61 87 33 47 993.5 992.2 25.0
16/10:27pm 3.5 -9.1 3.4 99 0.0 SW 59 87 32 47 993.6 992.3 24.2
16/10:01pm 3.8 -6.3 3.7 99 0.0 SW 46 65 25 35 993.5 992.2 21.8
16/10:00pm 3.8 -6.7 3.7 99 0.0 SW 48 65 26 35 993.4 992.1 21.8
16/09:37pm 3.3 -5.6 3.2 99 0.0 WSW 39 67 21 36 992.8 991.5 19.8
16/09:30pm 3.4 -3.7 3.3 99 0.0 WSW 30 48 16 26 992.9 991.7 18.6
16/09:29pm 3.6 -3.5 3.5 99 0.0 WSW 30 48 16 26 992.8 991.5 18.4
16/09:00pm 3.5 -5.3 3.4 99 0.0 W 39 56 21 30 992.0 990.7 15.8
16/08:31pm 3.5 -6.1 3.4 99 0.0 WSW 43 61 23 33 991.5 990.2 15.6
16/08:30pm 3.4 -6.4 3.3 99 0.0 WSW 44 63 24 34 991.4 990.1 15.6
16/08:00pm 4.5 -5.9 4.4 99 0.0 WNW 48 70 26 38 990.7 989.4 11.2
16/07:30pm 4.7 -5.2 4.6 99 0.0 WNW 46 74 25 40 990.2 988.9 9.0
16/07:00pm 4.8 -5.5 4.7 99 0.0 WNW 48 80 26 43 989.3 988.0 8.6
16/06:58pm 4.8 -4.7 4.7 99 0.0 NW 44 70 24 38 989.1 987.8 8.6
16/06:55pm 5.0 -3.2 4.9 99 0.0 NW 37 61 20 33 989.1 987.8 8.6
16/06:43pm 5.6 -1.7 5.5 99 0.0 NNW 33 76 18 41 988.7 987.3 6.0
16/06:40pm 5.7 -0.6 5.6 99 0.0 NNW 28 52 15 28 988.9 987.5 5.6
16/06:30pm 5.6 0.0 5.5 99 0.0 NNW 24 56 13 30 989.1 987.8 4.6
16/06:00pm 5.4 -1.4 5.3 99 0.0 NNW 30 57 16 31 989.1 987.8 4.2
16/05:30pm 5.9 -2.8 5.8 99 0.0 NNW 41 72 22 39 989.1 987.8 4.2
16/05:00pm 6.4 -2.6 6.3 99 0.0 NNW 43 74 23 40 989.0 987.7 3.4
16/04:37pm 7.2 -1.6 7.1 99 0.0 NNW 43 76 23 41 988.8 987.4 1.2
16/04:30pm 7.6 0.3 7.2 97 0.2 NNW 35 56 19 30 989.2 987.9 1.2
16/04:01pm 8.4 0.7 7.0 91 0.7 NNW 37 56 20 30 989.3 988.0 1.0
16/04:00pm 8.4 0.3 7.0 91 0.7 NNW 39 56 21 30 989.2 987.9 1.0
16/03:30pm 7.9 -0.4 7.8 99 0.1 NNW 41 70 22 38 989.8 988.5 1.0
16/03:00pm 9.8 0.0 8.7 93 0.6 NW 50 70 27 38 989.9 988.6 1.0
16/02:55pm 10.2 1.2 9.0 92 0.6 NNW 46 70 25 38 989.8 988.5 1.0
16/02:54pm 10.2 1.2 9.0 92 0.6 NNW 46 70 25 38 989.7 988.3 1.0
16/02:33pm 11.9 6.4 11.7 99 0.1 NNW 32 50 17 27 990.1 988.8 1.0
16/02:30pm 11.6 6.3 11.4 99 0.1 NNW 30 46 16 25 990.0 988.7 1.0
16/02:00pm 11.2 6.2 11.0 99 0.1 NNW 28 43 15 23 990.6 989.3 1.0
16/01:30pm 10.4 4.4 10.2 99 0.1 NW 32 44 17 24 991.2 989.9 1.0
16/01:00pm 11.0 6.7 10.8 99 0.1 NW 24 35 13 19 991.7 990.4 1.0
16/12:30pm 10.7 7.3 10.7 100 0.0 NNW 19 32 10 17 992.2 991.0 1.0
16/12:00pm 10.5 4.6 10.3 99 0.1 NNW 32 41 17 22 992.2 991.0 1.0
16/11:30am 10.2 4.6 10.1 99 0.1 NNW 30 41 16 22 992.8 991.5 1.0
16/11:00am 10.6 5.1 10.4 99 0.1 N 30 41 16 22 993.0 991.8 0.0
16/10:30am 10.5 3.6 10.3 99 0.1 N 37 52 20 28 993.4 992.1 0.0
16/10:00am 10.4 1.0 10.2 99 0.1 N 50 61 27 33 993.4 992.1 0.0
16/09:30am 9.9 3.6 9.8 99 0.1 N 33 44 18 24 994.6 993.4 0.0
16/09:00am 9.8 2.7 9.7 99 0.1 N 37 46 20 25 995.4 994.2 0.2
16/08:30am 9.7 3.6 9.6 99 0.1 N 32 39 17 21 995.9 994.7 0.0
16/08:00am 10.0 4.6 9.5 97 0.3 N 28 37 15 20 996.0 994.9 0.0
16/07:30am 10.2 3.1 9.7 97 0.3 N 37 48 20 26 996.0 994.9 0.0
16/07:00am 10.0 2.9 9.4 96 0.3 N 37 43 20 23 996.3 995.1 0.0
16/06:30am 9.6 2.5 9.5 99 0.1 NNE 37 46 20 25 996.7 995.5 0.0
16/06:00am 10.0 2.5 9.5 97 0.3 N 39 50 21 27 997.2 996.0 0.0
16/05:30am 9.3 1.4 9.2 99 0.1 N 41 50 22 27 997.3 996.1 0.0
16/05:00am 8.5 -0.1 8.2 98 0.2 NNE 43 57 23 31 997.7 996.6 0.0
16/04:30am 8.6 -0.4 7.2 91 0.7 NNE 44 54 24 29 998.3 997.1 0.0
16/04:00am 8.7 -0.1 7.2 90 0.8 NNE 43 54 23 29 998.9 997.8 0.0
16/03:30am 8.8 -0.2 7.3 90 0.8 NNE 44 57 24 31 999.0 997.9 0.0
16/03:00am 9.1 0.0 5.8 80 1.6 NNE 43 57 23 31 999.7 998.6 0.0
16/02:30am 9.4 1.1 5.9 79 1.7 NNE 39 46 21 25 1000.3 999.2 0.0
16/02:00am 9.7 3.7 7.1 84 1.3 NNE 28 35 15 19 1000.7 999.7 0.0
16/01:30am 9.2 2.9 5.8 79 1.7 NNE 28 32 15 17 1001.5 1000.5 0.0
16/01:00am 8.9 3.2 6.7 86 1.1 NNE 26 28 14 15 1002.2 1001.1 0.0
16/12:30am 8.9 3.1 7.8 93 0.6 NNE 28 32 15 17 1002.7 1001.7 0.0

Other Formats:

Comma delimited format used in spreadsheet applications
http://www.bom.gov.au/fwo/IDT60801/IDT60801.95952.axf

JavaScript Object Notation format (JSON) in row-major order
http://www.bom.gov.au/fwo/IDT60801/IDT60801.95952.json